sat.trackr.live / text

‹ back to catalog

STARLINK-36828

NORAD 67857 · 2026-034H

PAYLOAD ACTIVE UNKNOWN

§ Identity

Operator
Country
US
Launch date
2026-02-20
Launch site
AFETR
Launch vehicle
Mass (kg)
RCS (m²)

Purposes: comms

External: N2YO · Heavens-Above · Gunter

§ Orbital elements

Epoch: 2026-09-19T22:17:28.563648Z

Period
94.01 min
Inclination
53.1620°
Eccentricity
0.0001433
Mean motion
15.31710805 rev/d
Perigee alt
469.7 km
Apogee alt
471.7 km
Semi-major
6,848.8 km
B*
1.9153e-4
RAAN
20.6654°
Arg perigee
62.8121°
Mean anomaly
297.3027°
Rev number
3,379

§ Raw data

STARLINK-368281 67857U 26034H   26262.92880282  .00005585  00000+0  19153-3 0  99992 67857  53.1620  20.6654 0001433  62.8121 297.3027 15.31710805 33799

JSON: /api/v1/satellites/67857 · /tle

For live sub-satellite position, see the globe view (requires WebGL).

§ Visibility from observer

Set your observer location to see the next 7 days of passes ≥ 10°. The values pass through the URL so the page stays shareable.

No JS? Fill the form by hand. The geolocation button needs JavaScript.